781  
ASUS43 KLSX 261209  
RWRMO  
 
WEATHER ROUNDUP FOR MISSOURI  
NATIONAL WEATHER SERVICE ST LOUIS MO  
600 AM CST TUE JAN 26 2021  
 
NOTE: "FAIR" INDICATES FEW OR NO CLOUDS BELOW 12,000 FEET WITH NO  
SIGNIFICANT WEATHER AND/OR S TO VISIBILITY
.  
CURRENT SKY AND/OR WEATHER CONDITIONS ARE NOT AVAILABLE FOR  
CHILLICOTHE AND FARMINGTON.  
 
MOZ001>031-035>038-043-044-053-054-261300-   
..NORTHERN AND WESTERN MISSOURI
 
 
 
CITY SKY/WX TMP DP RH WIND PRES REMARKS
 
KANSAS CTY INT FLURRIES 26 22 84 N12 29.86R WCI 16  
6HR MIN TEMP: 26; 6HR MAX TEMP: 30; 6HR PCP: 0.02;  
 
KANSAS C DTWN CLOUDY 27 22 81 NW12 29.86R WCI 17  
6HR MIN TEMP: 27; 6HR MAX TEMP: 30; 6HR PCP: TRACE;  
 
LEE'S SUMMIT CLOUDY 28 25 88 N10 29.84R WCI 19  
6HR MIN TEMP: 28; 6HR MAX TEMP: 32; 6HR PCP: 0.01;  
 
ST JOSEPH CLOUDY 22 17 81 N13 29.91R WCI 10  
6HR MIN TEMP: 22; 6HR MAX TEMP: 28; 6HR PCP: 0.01;  
 
CHILLICOTHE N/A 23 19 85 N7 29.86R WCI 15  
6HR MIN TEMP: 23; 6HR MAX TEMP: 29; 6HR PCP: 0.03;  
 
KIRKSVILLE LGT SNOW 23 20 88 N9 29.79R FOG WCI 13  
6HR MIN TEMP: 23; 6HR MAX TEMP: 28; 6HR PCP: 0.03;  
 

 
MOZ066>068-077>081-088>096-101>105-261300-   
..SOUTHWEST MISSOURI
 
 
 
CITY SKY/WX TMP DP RH WIND PRES REMARKS
 
SPRINGFIELD CLOUDY 36 32 85 W14G22 29.80R WCI 27  
6HR MIN TEMP: 36; 6HR MAX TEMP: 42;  
 
JOPLIN CLOUDY 34 30 85 W12 29.86R WCI 25  
6HR MIN TEMP: 34; 6HR MAX TEMP: 41;  
 

 
MOZ032>034-039>042-045>050-055>058-069>072-261300-   
..CENTRAL MISSOURI
 
 
 
CITY SKY/WX TMP DP RH WIND PRES REMARKS
 
COLUMBIA CLOUDY 33 50 100 NW9 29.76R HAZE WCI 25  
6HR MIN TEMP: 33; 6HR MAX TEMP: 35; 6HR PCP: TRACE;  
 
JEFFERSON CITY CLOUDY 37 32 82 NW12 29.78R WCI 29  
6HR MIN TEMP: 37; 6HR MAX TEMP: 38; 6HR PCP: TRACE;  
 
ROLLA CLOUDY 38 35 89 W9 29.75R  
6HR MIN TEMP: 36; 6HR MAX TEMP: 42; 6HR PCP: TRACE;  
 
SEDALIA CLOUDY 31 28 89 NW9 29.82R WCI 23  
6HR MIN TEMP: 31; 6HR MAX TEMP: 35;  
 
WHITEMAN AFB LGT SNOW 30 27 88 NW10 29.78R WCI 21  
6HR MIN TEMP: 30; 6HR MAX TEMP: 34; 6HR PCP: TRACE;  
 
FT LEONARD WD DRIZZLE 39 36 87 W9G17 29.75R  
OSAGE BEACH CLOUDY 36 34 92 W12 29.80R WCI 28  
 

 
MOZ051-052-059>065-261300-   
..EAST CENTRAL MISSOURI
 
 
 
CITY SKY/WX TMP DP RH WIND PRES REMARKS
 
ST LOUIS INTL CLOUDY 36 33 89 W9 29.72R FOG WCI 29  
6HR MIN TEMP: 36; 6HR MAX TEMP: 37; 6HR PCP: TRACE;  
 
SPIRIT OF STL CLOUDY 37 35 92 NW9 29.72R  
6HR MIN TEMP: 35; 6HR MAX TEMP: 39;  
 
ST CHARLES CLOUDY 35 33 92 W6 29.73R FOG  
6HR MIN TEMP: 35; 6HR MAX TEMP: 36;  
 

 
MOZ072>076-082>087-097>100-106>115-261300-   
..SOUTH CENTRAL AND SOUTHEAST MISSOURI
 
 
 
CITY SKY/WX TMP DP RH WIND PRES REMARKS
 
CAPE GIRARDEAU FOG 41 39 93 CALM 29.78R VSB 1/4  
6HR MIN TEMP: 39; 6HR MAX TEMP: 42;  
 
FARMINGTON MOCLDY 43 37 79 W10 29.73R  
WEST PLAINS MOCLDY 40 35 83 W8 29.79R  
6HR MIN TEMP: 40; 6HR MAX TEMP: 44;  
 

 
 
 
CLICK HERE TO GO TO PREVIOUS BULLETINS.

The Nexlab MO Page Main Text Page